Jackson, KY

5:37 AM EDT on October 24, 2017 (GMT -0400)
Carroll

Weather History for KJKL - February, 2012

Change the Weather History Date:

Tuesday, February 21, 2012

  Actual Average Record
Temperature  
Mean Temperature 42 °F 40 °F  
Max Temperature 54 °F 49 °F 75 °F (2017)
Min Temperature 30 °F 31 °F 14 °F (1988)
Degree Days  
Heating Degree Days 23 25  
Month to date heating degree days 552 569  
Since 1 July heating degree days 2703 3135  
Cooling Degree Days 0 0  
Month to date cooling degree days 0 0  
Year to date cooling degree days 0 0  
Moisture  
Dew Point 33 °F    
Average Humidity 73    
Maximum Humidity 92    
Minimum Humidity 53    
Precipitation  
Precipitation 0.00 in 0.13 in 1.63 in (2015)
Month to date precipitation 2.24 2.79  
Year to date precipitation 7.10 6.40  
Snow  
Snow 0.00 in 0.20 in 2.40 in (2009)
Month to date snowfall 5.5 5.6  
Since 1 July snowfall 9.7 18.2  
Snow Depth T in    
Sea Level Pressure  
Sea Level Pressure 29.97 in    
Wind  
Wind Speed 5 mph (SSW)    
Max Wind Speed 17 mph    
Max Gust Speed 29 mph    
Visibility 10 miles    
Events      
T = Trace of Precipitation, MM = Missing Value Source: NWS Daily Summary

Daily Weather History Graph

Daily Weather History Graph

Search for Another Location

Airport or City:

Trip Planner

Search our weather history database for the weather conditions in past years. The results will help you decide how hot, cold, wet, or windy it might be!

Date:

Astronomy

Feb. 21, 2012 Rise Set
Actual Time 7:15 AM EST 6:18 PM EST
Civil Twilight 6:49 AM EST 6:44 PM EST
Nautical Twilight 6:18 AM EST 7:15 PM EST
Astronomical Twilight 5:48 AM EST 7:45 PM EST
Moon 6:44 AM EST (2/21) 6:22 PM EST (2/21)
Length of Visible Light 11h 55m
Length of Day
11h 02m
Waning Crescent, 0% of the Moon is Illuminated
Feb 21
Waning Crescent
Feb 21
New
Feb 29
First Quarter
Mar 8
Full
Mar 14
Last Quarter

Hourly Weather History & Observations

Time (EST) Temp. Windchill Dew Point Humidity Pressure Visibility Wind Dir Wind Speed Gust Speed Precip Events Conditions
12:53 AM 30.9 °F - 27.0 °F 85% 30.12 in 10.0 mi Calm Calm - N/A   Clear
1:53 AM 33.1 °F 27.7 °F 28.0 °F 82% 30.07 in 10.0 mi SE 5.8 mph - N/A   Clear
2:53 AM 32.0 °F - 27.0 °F 82% 30.08 in 10.0 mi Calm Calm - N/A   Clear
3:53 AM 30.9 °F 27.5 °F 28.0 °F 89% 30.08 in 10.0 mi South 3.5 mph - N/A   Clear
4:53 AM 32.0 °F 26.4 °F 28.0 °F 85% 30.06 in 10.0 mi SSW 5.8 mph - N/A   Clear
5:53 AM 34.0 °F 28.8 °F 27.0 °F 75% 30.05 in 10.0 mi Variable 5.8 mph - N/A   Partly Cloudy
6:53 AM 37.0 °F 32.4 °F 25.0 °F 62% 30.02 in 10.0 mi Variable 5.8 mph - N/A   Overcast
7:53 AM 37.9 °F 34.4 °F 25.0 °F 60% 29.99 in 10.0 mi South 4.6 mph - N/A   Overcast
8:53 AM 42.1 °F 37.1 °F 27.0 °F 55% 29.99 in 10.0 mi South 8.1 mph - N/A   Scattered Clouds
9:53 AM 46.9 °F - 30.9 °F 54% 29.96 in 10.0 mi South 11.5 mph 21.9 mph N/A   Scattered Clouds
10:53 AM 48.9 °F - 33.1 °F 54% 29.96 in 10.0 mi South 8.1 mph - N/A   Overcast
11:53 AM 48.9 °F - 35.1 °F 59% 29.96 in 10.0 mi SSW 8.1 mph - N/A   Overcast
12:53 PM 50.0 °F - 36.0 °F 59% 29.94 in 10.0 mi SW 8.1 mph 17.3 mph N/A   Overcast
1:53 PM 51.1 °F - 37.0 °F 59% 29.92 in 10.0 mi SW 9.2 mph 19.6 mph N/A   Overcast
2:53 PM 52.0 °F - 37.0 °F 57% 29.90 in 10.0 mi Variable 4.6 mph - N/A   Overcast
3:53 PM 53.1 °F - 37.9 °F 57% 29.88 in 10.0 mi Variable 4.6 mph - N/A   Overcast
4:53 PM 53.6 °F - 37.4 °F 54% 29.88 in 10.0 mi Variable 4.6 mph - N/A   Overcast
5:53 PM 52.0 °F - 37.9 °F 59% 29.88 in 10.0 mi Variable 3.5 mph - N/A   Mostly Cloudy
6:53 PM 50.0 °F - 37.4 °F 62% 29.89 in 10.0 mi SW 4.6 mph - N/A   Clear
7:53 PM 48.9 °F - 37.0 °F 64% 29.90 in 10.0 mi SW 3.5 mph - N/A   Partly Cloudy
8:53 PM 48.9 °F - 36.0 °F 61% 29.92 in 10.0 mi SW 4.6 mph - N/A   Partly Cloudy
9:53 PM 48.0 °F - 36.0 °F 63% 29.92 in 10.0 mi SW 3.5 mph - N/A   Mostly Cloudy
10:53 PM 46.9 °F - 35.1 °F 63% 29.92 in 10.0 mi SW 4.6 mph - N/A   Mostly Cloudy
11:53 PM 46.9 °F - 35.1 °F 63% 29.93 in 10.0 mi West 6.9 mph - N/A   Clear